Regional Weather Roundup
Issued by NWS Sioux Falls, SD

Home | Current Version | Previous Version | Text Only | Print | Product List | Glossary On
Versions: 1 2 3 4 5 6 7 8 9 10 11 12 13 14 15 16 17 18 19 20 21 22 23 24 25 26 27 28 29 30 31 32 33 34 35 36 37 38 39 40 41 42 43 44 45 46 47 48 49 50
000
ASUS43 KFSD 290410
RWRFSD

WEATHER ROUNDUP FOR SE SOUTH DAKOTA/SW MINNESOTA/NW IOWA
NATIONAL WEATHER SERVICE SIOUX FALLS SD
1100 PM CDT WED JUN 28 2017

NOTE: "FAIR" INDICATES FEW OR NO CLOUDS BELOW 12,000 FEET WITH NO
SIGNIFICANT WEATHER AND OR OBSTRUCTIONS TO VISIBILITY.


SDZ038>040-050-052>070-290500-
SOUTHEAST SOUTH DAKOTA

CITY           SKY/WX    TMP DP  RH WIND       PRES   REMARKS
BROOKINGS      CLEAR     65  53  65 NE3       29.73R
CHAMBERLAIN    PTCLDY    76  45  33 N5        29.73R
HURON          CLEAR     64  46  52 N6        29.71R
MADISON        FAIR      59  52  77 N7        29.73R
MITCHELL       CLEAR     69  46  43 N5        29.71R
SIOUX FALLS    CLEAR     65  59  81 N6        29.70R
WINNER         FAIR      69  48  47 E6        29.75R
YANKTON        CLEAR     70  62  76 NW7       29.70R
$$

MNZ071-072-080-081-089-090-097-098-290500-
SOUTHWEST MINNESOTA

CITY           SKY/WX    TMP DP  RH WIND       PRES   REMARKS
FAIRMONT       CLEAR     70  66  87 NW7       29.69R
JACKSON        CLEAR     70  63  78 CALM      29.71R
LUVERNE        CLEAR     66  59  77 NW3       29.71R
MARSHALL       NOT AVBL
MONTEVIDEO     CLEAR     66  57  72 NW5       29.69R
PIPESTONE      CLEAR     70  57  64 NE5       29.73R
REDWOOD FALLS  CLEAR     68  59  73 NW7       29.67R
TRACY          CLEAR     68  63  83 NW7       29.71R
WINDOM         CLEAR     68  63  83 NW9       29.70R
WORTHINGTON    CLEAR     68  61  78 N10       29.71R
$$

IAZ001>003-012>014-020>022-031-032-NEZ013-014-SDZ071-290500-
NORTHWEST IOWA

CITY           SKY/WX    TMP DP  RH WIND       PRES   REMARKS
CHEROKEE       CLEAR     70  65  83 CALM      29.69S
DENISON        CLEAR     70  68  94 SE5       29.71S
ESTHERVILLE    CLEAR     68  67  96 NW5       29.68R
LE MARS        CLEAR     68  63  83 CALM      29.70R
ORANGE CITY    CLEAR     72  63  73 CALM      29.70R
SHELDON        CLEAR     68  63  83 CALM      29.68R
SIOUX CITY     CLEAR     71  66  84 CALM      29.68R
SPENCER        CLEAR     70  65  84 NW3       29.69R
STORM LAKE     CLEAR     72  64  78 W8        29.70S
$$

ABBREVIATIONS USED IN REMARKS
   TC - TEMPERATURE IN CELSIUS
  WCI - WIND CHILL INDEX
   HX - HEAT INDEX
  VSB - VISIBILITY





USA.gov is the U.S. government's official web portal to all federal, state and local government web resources and services.